• In Belarus
  • List of Countries
  • For 7 days
  • Water Temperature
  • Satellite Maps
  • Weather Map
  • Weather Widgets
  • user-avatar
    Login

    Hourly Weather Pokrovka

    Today, 17 June, Monday

    Time Temperature Precipitation Wind Pressure Humidity
    00:00 +20°C° 0 mm 0 mps 732 mmHg 77%
    01:00 +20°C° 0 mm 0 mps 732 mmHg 79%
    02:00 +19°C° 0 mm 0 mps 733 mmHg 80%
    03:00 +19°C° 0 mm 0 mps 733 mmHg 81%
    04:00 +19°C° 0 mm 0 mps 733 mmHg 82%
    05:00 +19°C° 0 mm 0 mps 733 mmHg 83%
    06:00 +22°C° 0.1 mm 1 mps 733 mmHg 84%
    07:00 +22°C° 0.1 mm 3 mps 734 mmHg 86%
    08:00 +23°C° 0.1 mm 4 mps 734 mmHg 87%
    09:00 +25°C° 1.9 mm 4 mps 734 mmHg 83%
    10:00 +26°C° 1.9 mm 4 mps 734 mmHg 78%
    11:00 +27°C° 1.9 mm 3 mps 734 mmHg 74%
    12:00 +27°C° 1.5 mm 4 mps 734 mmHg 77%
    13:00 +26°C° 1.5 mm 4 mps 734 mmHg 79%
    14:00 +26°C° 1.5 mm 4 mps 734 mmHg 82%
    15:00 +26°C° 0.4 mm 4 mps 734 mmHg 83%
    16:00 +25°C° 0.4 mm 4 mps 734 mmHg 84%
    17:00 +25°C° 0.4 mm 4 mps 734 mmHg 85%
    18:00 +24°C° 0 mm 3 mps 734 mmHg 87%
    19:00 +24°C° 0 mm 3 mps 734 mmHg 89%
    20:00 +23°C° 0 mm 2 mps 734 mmHg 92%
    21:00 +21°C° 0 mm 3 mps 735 mmHg 92%
    22:00 +20°C° 0 mm 3 mps 735 mmHg 93%
    23:00 +20°C° 0 mm 3 mps 735 mmHg 93%

    Tomorrow, 18 June, Tuesday

    Time Temperature Precipitation Wind Pressure Humidity
    00:00 +19°C° 0 mm 3 mps 735 mmHg 94%
    01:00 +18°C° 0 mm 3 mps 735 mmHg 95%
    02:00 +17°C° 0 mm 3 mps 735 mmHg 96%
    03:00 +17°C° 0 mm 3 mps 735 mmHg 96%
    04:00 +17°C° 0 mm 3 mps 735 mmHg 96%
    05:00 +16°C° 0 mm 2 mps 735 mmHg 95%
    06:00 +18°C° 0 mm 3 mps 735 mmHg 92%
    07:00 +19°C° 0 mm 3 mps 736 mmHg 88%
    08:00 +20°C° 0 mm 3 mps 736 mmHg 84%
    09:00 +21°C° 0 mm 3 mps 736 mmHg 80%
    10:00 +23°C° 0 mm 2 mps 736 mmHg 76%
    11:00 +24°C° 0 mm 2 mps 736 mmHg 71%
    12:00 +25°C° 0 mm 2 mps 735 mmHg 70%
    13:00 +26°C° 0 mm 2 mps 735 mmHg 68%
    14:00 +26°C° 0 mm 3 mps 735 mmHg 66%
    15:00 +26°C° 0 mm 2 mps 735 mmHg 67%
    16:00 +26°C° 0 mm 2 mps 735 mmHg 68%
    17:00 +26°C° 0 mm 2 mps 735 mmHg 69%
    18:00 +25°C° 0 mm 2 mps 734 mmHg 74%
    19:00 +24°C° 0 mm 2 mps 734 mmHg 79%
    20:00 +21°C° 0 mm 2 mps 734 mmHg 84%
    21:00 +21°C° 0 mm 2 mps 734 mmHg 86%
    22:00 +20°C° 0 mm 2 mps 734 mmHg 89%
    23:00 +19°C° 0 mm 2 mps 734 mmHg 91%

    Day after tomorrow, 19 June, Wednesday

    Time Temperature Precipitation Wind Pressure Humidity
    00:00 +19°C° 0 mm 2 mps 734 mmHg 92%
    01:00 +19°C° 0 mm 2 mps 734 mmHg 93%
    02:00 +18°C° 0 mm 2 mps 734 mmHg 94%
    03:00 +18°C° 0 mm 2 mps 734 mmHg 95%
    04:00 +18°C° 0 mm 2 mps 734 mmHg 95%
    05:00 +18°C° 0 mm 2 mps 733 mmHg 96%
    06:00 +19°C° 0 mm 3 mps 734 mmHg 92%
    07:00 +21°C° 0 mm 3 mps 734 mmHg 88%
    08:00 +22°C° 0 mm 3 mps 734 mmHg 84%
    09:00 +24°C° 0 mm 3 mps 734 mmHg 80%
    10:00 +25°C° 0 mm 3 mps 734 mmHg 76%
    11:00 +26°C° 0 mm 3 mps 734 mmHg 73%
    12:00 +26°C° 0.3 mm 4 mps 734 mmHg 73%
    13:00 +26°C° 0.3 mm 4 mps 733 mmHg 73%
    14:00 +27°C° 0.3 mm 4 mps 733 mmHg 73%
    15:00 +27°C° 0.1 mm 4 mps 733 mmHg 73%
    16:00 +26°C° 0.1 mm 4 mps 733 mmHg 73%
    17:00 +26°C° 0.1 mm 4 mps 733 mmHg 73%
    18:00 +25°C° 0 mm 4 mps 732 mmHg 78%
    19:00 +24°C° 0 mm 3 mps 732 mmHg 82%
    20:00 +22°C° 0 mm 3 mps 732 mmHg 86%
    21:00 +21°C° 0.1 mm 3 mps 732 mmHg 88%
    22:00 +21°C° 0.1 mm 3 mps 733 mmHg 89%
    23:00 +20°C° 0.1 mm 3 mps 733 mmHg 90%

    20 June, Thursday

    Time Temperature Precipitation Wind Pressure Humidity
    00:00 +20°C° 0.1 mm 3 mps 732 mmHg 91%
    01:00 +19°C° 0.1 mm 3 mps 732 mmHg 93%
    02:00 +19°C° 0.1 mm 3 mps 732 mmHg 94%
    03:00 +19°C° 0 mm 3 mps 732 mmHg 94%
    04:00 +19°C° 0 mm 3 mps 732 mmHg 94%
    05:00 +19°C° 0 mm 3 mps 732 mmHg 94%
    06:00 +20°C° 0 mm 3 mps 732 mmHg 91%
    07:00 +21°C° 0 mm 4 mps 732 mmHg 87%
    08:00 +23°C° 0 mm 4 mps 733 mmHg 84%
    09:00 +25°C° 0 mm 4 mps 733 mmHg 80%
    10:00 +26°C° 0 mm 4 mps 733 mmHg 77%
    11:00 +27°C° 0 mm 4 mps 733 mmHg 73%
    12:00 +27°C° 0 mm 4 mps 733 mmHg 72%
    13:00 +28°C° 0 mm 4 mps 732 mmHg 70%
    14:00 +28°C° 0 mm 4 mps 732 mmHg 69%
    15:00 +28°C° 0 mm 4 mps 732 mmHg 69%
    16:00 +28°C° 0 mm 4 mps 732 mmHg 70%
    17:00 +28°C° 0 mm 4 mps 732 mmHg 71%
    18:00 +27°C° 0.1 mm 3 mps 732 mmHg 75%
    19:00 +25°C° 0.1 mm 3 mps 732 mmHg 80%
    20:00 +24°C° 0.1 mm 3 mps 732 mmHg 85%
    21:00 +22°C° 0.2 mm 3 mps 732 mmHg 87%
    22:00 +21°C° 0.2 mm 3 mps 732 mmHg 89%
    23:00 +20°C° 0.2 mm 3 mps 732 mmHg 91%

    21 June, Friday

    Time Temperature Precipitation Wind Pressure Humidity
    00:00 +20°C° 0 mm 3 mps 732 mmHg 92%
    01:00 +20°C° 0 mm 3 mps 732 mmHg 93%
    02:00 +19°C° 0 mm 4 mps 732 mmHg 94%
    03:00 +19°C° 0 mm 3 mps 732 mmHg 93%
    04:00 +19°C° 0 mm 3 mps 732 mmHg 93%
    05:00 +19°C° 0 mm 3 mps 733 mmHg 93%
    06:00 +20°C° 0 mm 3 mps 733 mmHg 89%
    07:00 +22°C° 0 mm 4 mps 733 mmHg 84%
    08:00 +23°C° 0 mm 4 mps 733 mmHg 80%
    09:00 +25°C° 0 mm 4 mps 733 mmHg 76%
    10:00 +27°C° 0 mm 4 mps 733 mmHg 72%
    11:00 +28°C° 0 mm 5 mps 733 mmHg 68%
    12:00 +28°C° 0.1 mm 5 mps 733 mmHg 66%
    13:00 +29°C° 0.1 mm 5 mps 733 mmHg 64%
    14:00 +29°C° 0.1 mm 5 mps 733 mmHg 62%
    15:00 +29°C° 0 mm 5 mps 733 mmHg 64%
    16:00 +29°C° 0 mm 4 mps 733 mmHg 66%
    17:00 +28°C° 0 mm 4 mps 732 mmHg 69%
    18:00 +27°C° 0 mm 4 mps 732 mmHg 73%
    19:00 +25°C° 0 mm 3 mps 732 mmHg 77%
    20:00 +24°C° 0 mm 3 mps 732 mmHg 81%
    21:00 +22°C° 0 mm 3 mps 732 mmHg 80%
    22:00 +21°C° 0 mm 4 mps 732 mmHg 80%
    23:00 +20°C° 0 mm 4 mps 733 mmHg 79%

    22 June, Saturday

    Time Temperature Precipitation Wind Pressure Humidity
    00:00 +20°C° 0 mm 4 mps 732 mmHg 79%
    01:00 +19°C° 0 mm 4 mps 732 mmHg 79%
    02:00 +19°C° 0 mm 4 mps 732 mmHg 80%
    03:00 +19°C° 0 mm 4 mps 732 mmHg 82%
    04:00 +19°C° 0 mm 4 mps 732 mmHg 84%
    05:00 +18°C° 0 mm 4 mps 732 mmHg 86%
    06:00 +20°C° 0 mm 4 mps 732 mmHg 82%
    07:00 +22°C° 0 mm 5 mps 732 mmHg 79%
    08:00 +23°C° 0 mm 5 mps 733 mmHg 76%
    09:00 +25°C° 0 mm 5 mps 733 mmHg 72%
    10:00 +27°C° 0 mm 6 mps 733 mmHg 68%
    11:00 +28°C° 0 mm 6 mps 733 mmHg 64%
    12:00 +28°C° 0 mm 6 mps 733 mmHg 62%
    13:00 +29°C° 0 mm 6 mps 732 mmHg 61%
    14:00 +29°C° 0 mm 6 mps 732 mmHg 59%
    15:00 +29°C° 0 mm 5 mps 732 mmHg 62%
    16:00 +29°C° 0 mm 4 mps 732 mmHg 64%
    17:00 +29°C° 0 mm 4 mps 732 mmHg 67%
    18:00 +27°C° 0 mm 4 mps 732 mmHg 72%
    19:00 +26°C° 0 mm 4 mps 732 mmHg 76%
    20:00 +24°C° 0 mm 3 mps 732 mmHg 81%
    21:00 +22°C° 0 mm 4 mps 732 mmHg 81%
    22:00 +21°C° 0 mm 4 mps 732 mmHg 80%
    23:00 +21°C° 0 mm 4 mps 732 mmHg 80%
    Show more